Location: ?????????
(54.7630°N, 39.4991°E)
Time: 06:53:33
(UTC+00:00)

Cosmos 407 Rocket - Pass Details

Date: 14 April 2026
Orbit: 740 x 781 km, 74.0° (Epoch: 12 May)

Event Time Altitude Azimuth Distance (km) Brightness Sun altitude
Rises 19:49:23 0° 333° (NNW) 3,220 8.2 -22.7°
Reaches altitude 10° 19:51:49 10° 338° (NNW) 2,286 7.1 -22.9°
Maximum altitude 19:56:55 57° 57° (ENE) 882 3.8 -23.1°
Enters shadow 19:57:59 47° 102° (ESE) 987 3.8 -23.2°
